Dewpoint
53 53 53 53 53 52 53 53 53 54 54 54 54 52 53 54 56 56 55 55 55 55 56 57 57 57 58 58 58 59 58 57 57 57 57 56 55 55 55 55 53 53
53 54 54 54 54 53 53 53 53 53 54 54 54 54 54 55 54 55 55 55 55 55 55 56 56 56 56 57 57 56 55 54 52 53 51 51 50 49 49 49 48 48
54 54 54 53 53 53 52 53 54 55 55 55 55 55 54 54 53 53 54 54 54 54 55 55 55 54 54 53 53 52 51 49 49 50 49 47 47 46 47 47 47 47
55 54 54 53 53 53 55 55 54 55 54 54 54 54 54 54 54 54 54 56 53 52 53 52 52 51 51 50 50 50 49 49 49 50 51 50 50 49 49 49 49 48
55 54 54 54 55 56 55 54 54 53 53 53 53 54 54 52 52 52 52 52 51 51 51 50 50 50 50 49 49 48 49 49 50 50 49 49 48 48 48 48 49 49
54 54 55 55 55 54 53 53 53 52 53 52 53 52 51 51 51 51 51 50 49 48 49 49 49 48 48 47 48 48 49 49 49 49 49 49 49 49 48 48 48 48
54 55 55 55 54 53 53 53 52 52 52 52 52 50 50 50 50 50 50 49 47 48 47 47 46 46 47 47 48 48 48 48 49 50 49 49 49 48 49 49 49 48
54 55 55 55 54 54 53 53 52 51 52 51 50 50 50 49 48 49 49 48 47 47 47 46 46 45 46 46 47 47 47 49 48 49 48 48 47 47 47 48 47 46
54 54 54 54 53 54 53 53 52 51 51 50 50 50 50 48 47 48 48 47 47 47 47 45 45 45 46 47 46 46 46 47 49 48 48 47 47 47 47 47 46 47
53 53 53 53 53 53 53 53 52 52 51 50 50 50 49 48 46 46 46 46 46 46 46 45 45 47 47 46 45 45 46 47 48 48 49 47 47 47 46 46 46 47
56 54 52 52 52 53 53 53 52 52 52 50 50 49 49 48 48 46 46 46 46 45 45 45 47 48 46 46 47 47 47 48 48 49 48 47 47 46 48 46 47 46
57 57 56 52 53 52 53 52 51 51 51 51 49 48 49 49 50 47 46 44 44 44 45 45 47 47 45 47 48 48 48 47 48 48 47 46 46 47 47 46 46 46
57 56 55 55 54 53 53 53 51 51 51 50 51 48 48 48 49 48 47 43 43 44 45 46 47 46 46 48 49 47 47 46 47 47 47 46 46 47 47 47 46 47
56 56 56 55 55 55 55 54 53 53 53 51 52 49 49 49 48 48 47 45 43 44 45 46 46 46 45 47 48 47 46 46 46 47 48 47 46 47 47 47 47 47
56 56 56 56 56 56 56 55 55 54 54 53 51 50 51 49 47 47 47 47 46 44 45 47 47 46 46 46 47 48 47 46 47 50 49 47 47 48 49 50 50 50
56 56 56 55 56 56 56 55 54 55 54 53 53 50 49 49 47 49 46 47 46 45 45 47 47 47 49 47 47 48 48 48 49 50 49 49 50 50 50 51 52 51
56 56 55 55 55 55 55 56 56 55 55 55 54 53 51 49 49 49 47 46 46 46 46 47 47 48 45 42 42 45 48 49 49 50 50 51 52 51 52 52 50 50
54 54 54 54 55 55 55 55 55 55 55 54 54 54 54 53 51 50 49 48 47 47 46 47 47 46 43 42 42 43 46 50 50 49 51 51 52 52 52 52 52 52
51 54 54 54 54 54 54 54 53 54 54 54 54 53 53 54 53 52 52 51 50 49 48 49 48 45 43 42 41 42 43 47 50 49 51 52 52 52 52 52 52 52
39 41 44 49 51 52 52 53 53 53 53 53 52 52 51 52 52 52 52 51 50 49 49 48 48 47 42 42 41 40 41 44 50 50 51 52 53 53 53 53 53 53
37 39 40 42 43 44 44 45 48 50 51 51 51 52 52 52 51 51 51 51 51 51 50 50 50 47 42 41 41 40 40 41 49 52 51 51 53 53 53 53 53 53
38 38 38 38 39 39 39 41 42 44 45 48 49 49 49 50 50 51 51 53 53 52 51 51 52 47 42 41 41 41 41 46 49 52 52 52 52 52 52 53 54 53
38 38 38 37 38 37 37 37 38 38 39 43 43 44 46 47 49 50 50 50 51 52 52 52 51 48 43 41 41 41 43 49 50 52 52 52 52 51 52 52 53 53
39 39 38 38 37 37 37 38 38 38 37 39 39 39 40 42 45 47 49 49 50 50 50 50 51 49 44 42 41 40 44 49 50 51 51 51 51 51 51 51 51 52
38 38 38 37 37 37 38 37 37 37 38 38 38 38 39 40 42 43 44 45 47 48 52 51 51 50 46 43 42 41 43 47 48 49 49 49 50 50 49 49 46 46
38 38 38 38 37 37 38 38 38 37 37 37 37 37 37 38 38 38 38 39 41 45 47 49 50 51 50 46 44 42 42 48 48 47 47 48 49 50 50 48 45 43